User: anonymous   Login
Location: Unspecified
(0.0000°N, 0.0000°E)
Time: 08:20:13
(UTC+00:00)
Language:

N. Korean satellite - Orbit

View from above orbital plane
View from above orbital plane
View from above satellite
View from above satellite

Ground track
Ground track

The orbit data is extracted from the following two-line orbital elements,

1 39026U 12072A   17116.71018335 +.00003386 +00000-0 +13432-3 0  9992
2 39026 097.2257 136.3128 0040668 002.0920 358.0481 15.25270707242143
Epoch (UTC): 26 April 2017 17:02:39
Eccentricity: 0.0040668
inclination: 97.2257°
perigee height: 462 km
apogee height: 518 km
right ascension of ascending node: 136.3128°
argument of perigee: 2.0920°
revolutions per day: 15.25270707
mean anomaly at epoch: 358.0481°
orbit number at epoch: 24214

The dashed part of the orbit path shows where the satellite is in the earth's shadow,  

DLR